Zurück zum Katalog

THORAD AGENA D DEB

AktivLEO
NORAD 4174·DEBRIS·🇺🇸 United States

Gestartet Sep 30, 1969 von Vandenberg Space Force Base

Loading…

Nächste Überflüge (nächste 24 Stunden)

TLE

AktuellSource: Space-Track

Epoche: Sep 13, 2026, 21:19 UTC

1  4174U 69082AS  26256.88875150  .00000410  00000-0  16218-3 0  9990
2  4174  69.9885  97.4652 0044969 200.8158 159.1138 14.35157685954564

Verfolge THORAD AGENA D DEB in Echtzeit mit AllMySat

Download on the App Store